Home   Weather   Częstochowa   Past weeks

Flag for Poland Past Weather in Częstochowa, Poland — Yesterday and Last 2 Weeks

Now
41 °F

Scattered clouds.


Feels Like: 32 °F
Forecast: 38 / 44 °F
Wind: 17 mph from Southwest

Location: Katowice Airport

Current Time: Feb 20, 2017 at 4:43:31 pm

Latest Report: Feb 20, 2017 at 4:00 pm


Visibility: N/A

Pressure: 29.95 "Hg

Humidity: 76%

Dew Point: 34 °F

Location of CzęstochowaLocation

Past Weather in Częstochowa — Graph

°F

Częstochowa Temperature Yesterday

Maximum temperature yesterday: 37 °F (at 11:30 am)
Minimum temperature yesterday: 30 °F (at 10:30 pm)
Average temperature yesterday: 35 °F

High & Low Weather Summary for the Past Weeks

 TemperatureHumidityPressure
High48 °F (Feb 15, 4:00 pm)100% (Feb 5, 3:00 pm)30.63 "Hg (Feb 5, 3:00 pm)
Low14 °F (Feb 11, 7:00 am)32% (Feb 15, 3:30 pm)29.65 "Hg (Feb 5, 3:00 pm)
Average27 °F84%30.30 "Hg
* Reported Feb 5 3:00 pm — Feb 20 3:30 pm, Częstochowa, Weather by CustomWeather, © 2017

Note: Actual official high and low records may vary slightly from our data, if they occured in-between our weather recording intervals... More about our weather records

Advertising

Częstochowa Weather History for the Previous 24 Hours

Scroll right to see more
 ConditionsComfort  
Time TempWeatherWind HumidityBarometerVisibility
3:30 pm
Mon, Feb 20
41 °FMostly cloudy.18 mph76%29.98 "HgN/A
3:00 pm43 °FBroken clouds.18 mph71%29.98 "HgN/A
2:30 pm43 °FPartly sunny.16 mph71%29.98 "HgN/A
2:00 pm43 °FPartly sunny.16 mph71%29.98 "HgN/A
1:30 pm43 °FPassing clouds.16 mph71%30.01 "HgN/A
1:00 pm43 °FMostly cloudy.15 mph66%30.01 "Hg6 mi
12:30 pm41 °FPartly sunny.14 mph76%30.04 "Hg4 mi
12:00 pm39 °FOvercast.14 mph75%30.04 "Hg4 mi
11:30 am37 °FFog.13 mph81%30.07 "Hg3 mi
11:00 am37 °FFog.9 mph81%30.07 "Hg3 mi
10:30 am37 °FOvercast.13 mph81%30.07 "Hg4 mi
10:00 am36 °FFog.12 mph87%30.07 "Hg3 mi
9:30 am34 °FFog.12 mph87%30.07 "Hg3 mi
9:00 am34 °FFog.9 mph87%30.07 "Hg2 mi
8:30 am34 °FFog.10 mph87%30.07 "Hg3 mi
8:00 am32 °FIce fog.8 mph87%30.07 "Hg2 mi
7:30 am30 °FIce fog.8 mph93%30.07 "Hg2 mi
7:00 am30 °FIce fog.8 mph93%30.07 "Hg2 mi
6:30 am30 °FIce fog.9 mph93%30.07 "Hg2 mi
6:00 am28 °FIce fog.7 mph93%30.07 "Hg2 mi
5:30 am28 °FIce fog.7 mph93%30.07 "Hg2 mi
5:00 am30 °FIce fog.7 mph93%30.07 "Hg3 mi
4:30 am30 °FIce fog.8 mph93%30.07 "Hg3 mi
4:00 am30 °FIce fog.9 mph93%30.07 "Hg3 mi
3:30 am30 °FClear.8 mph86%30.07 "Hg4 mi
3:00 am30 °FClear.7 mph86%30.09 "Hg4 mi
2:30 am32 °FClear.9 mph80%30.09 "Hg4 mi
2:00 am30 °FClear.8 mph86%30.09 "Hg4 mi
1:30 am32 °FClear.8 mph80%30.09 "Hg4 mi
1:00 am32 °FClear.8 mph80%30.09 "Hg4 mi
12:30 am30 °FIce fog.7 mph86%30.09 "Hg3 mi
12:00 am32 °FIce fog.9 mph80%30.09 "Hg3 mi
11:30 pm
Sun, Feb 19
32 °FIce fog.9 mph80%30.09 "Hg3 mi
11:00 pm32 °FIce fog.8 mph87%30.09 "Hg3 mi
10:30 pm30 °FIce fog.8 mph93%30.09 "Hg2 mi
10:00 pm32 °FIce fog.8 mph87%30.09 "Hg2 mi
9:30 pm32 °FIce fog.8 mph87%30.09 "Hg3 mi
9:00 pm32 °FIce fog.8 mph87%30.09 "Hg3 mi
8:30 pm32 °FIce fog.8 mph87%30.09 "Hg3 mi
8:00 pm34 °FFog.9 mph81%30.09 "Hg3 mi
7:30 pm34 °FClear.9 mph81%30.09 "Hg4 mi
7:00 pm34 °FClear.8 mph81%30.09 "Hg4 mi
6:30 pm36 °FClear.8 mph75%30.09 "Hg5 mi
6:00 pm36 °FPassing clouds.7 mph75%30.09 "Hg5 mi
5:30 pm36 °FPassing clouds.7 mph75%30.09 "HgN/A
5:00 pm37 °FScattered clouds.13 mph70%30.09 "HgN/A
4:30 pm37 °FPartly sunny.10 mph75%30.09 "HgN/A
4:00 pm37 °FOvercast.12 mph75%30.12 "HgN/A
Weather by CustomWeather, © 2017

See weather overviewHow to use our weather pages